This demonstration page uses our WeatherBlox Daily Observations layout. Learn more.

Hourly Observations for January 8, 2019

Temp ( °F °C ) Dew Point ( °F °C ) Humidity (%) Winds ( mph kmh ) Pressure ( in mb ) Visibility ( mi km ) Precip ( " mm )
12:15 am 00:15 Cloudy with Light Rain 37 3 36 2 93 93 S 6 9 30.24 1024 7 11.265408 0 0
12:35 am 00:35 Cloudy with Light Rain 37 3 36 2 93 93 S 8 13 30.21 1023 10 16.09344 0.01 0.254
12:55 am 00:55 Cloudy with Light Rain 36 2 36 2 100 100 S 8 13 30.24 1024 5 8.04672 0.03 0.762
1:15 am 01:15 Cloudy with Light Rain 36 2 36 2 100 100 S 12 19 30.21 1023 7 11.265408 0.01 0.254
1:35 am 01:35 Cloudy 36 2 36 2 100 100 S 8 13 30.21 1023 10 16.09344 0.01 0.254
1:55 am 01:55 Cloudy 36 2 36 2 100 100 SSW 6 9 30.21 1023 10 16.09344 0.01 0.254
2:15 am 02:15 Cloudy 36 2 36 2 100 100 S 8 13 30.18 1022 10 16.09344 0 0
2:35 am 02:35 Cloudy 36 2 36 2 100 100 S 7 11 30.18 1022 10 16.09344 0 0
2:55 am 02:55 Cloudy 37 3 37 3 100 100 S 6 9 30.18 1022 10 16.09344 0 0
3:15 am 03:15 Cloudy 37 3 37 3 100 100 S 8 13 30.15 1021 10 16.09344 0 0
3:35 am 03:35 Cloudy 36 2 36 2 100 100 S 7 11 30.15 1021 10 16.09344 0 0
3:55 am 03:55 Partly Cloudy 36 2 36 2 100 100 S 7 11 30.15 1021 10 16.09344 0 0
4:15 am 04:15 Partly Cloudy 36 2 36 2 100 100 S 7 11 30.15 1021 10 16.09344 0 0
4:35 am 04:35 Partly Cloudy 36 2 36 2 100 100 S 6 9 30.12 1020 10 16.09344 0 0
4:55 am 04:55 Mostly Cloudy 36 2 36 2 100 100 S 6 9 30.12 1020 10 16.09344 0 0
5:15 am 05:15 Cloudy 36 2 36 2 100 100 SSW 3 6 30.09 1019 10 16.09344 0 0
5:35 am 05:35 Cloudy 36 2 36 2 100 100 S 3 6 30.09 1019 10 16.09344 0 0
5:55 am 05:55 Cloudy 36 2 36 2 100 100 S 3 6 30.09 1019 10 16.09344 0 0
6:15 am 06:15 Mostly Cloudy 36 2 36 2 100 100 Calm 30.09 1019 10 16.09344 0 0
6:35 am 06:35 Cloudy 36 2 36 2 100 100 Calm 30.09 1019 10 16.09344 0 0
6:55 am 06:55 Cloudy 34 1 34 1 100 100 Calm 30.09 1019 10 16.09344 0 0
7:15 am 07:15 Partly Cloudy 34 1 34 1 100 100 Calm 30.06 1018 10 16.09344 0 0
7:35 am 07:35 Partly Cloudy 34 1 34 1 100 100 Calm 30.06 1018 10 16.09344 0 0
7:55 am 07:55 Mostly Cloudy 34 1 34 1 100 100 Calm 30.06 1018 10 16.09344 0 0
8:15 am 08:15 Cloudy 34 1 34 1 100 100 Calm 30.09 1019 7 11.265408 0 0
8:35 am 08:35 Cloudy 34 1 34 1 100 100 Calm 30.06 1018 7 11.265408 0 0
8:55 am 08:55 Cloudy 36 2 36 2 100 100 S 6 9 30.06 1018 10 16.09344 0 0
9:15 am 09:15 Cloudy 36 2 36 2 100 100 Calm 30.06 1018 10 16.09344 0 0
9:35 am 09:35 Cloudy 37 3 37 3 100 100 Calm 30.03 1017 10 16.09344 0 0
9:55 am 09:55 Cloudy 37 3 37 3 100 100 Calm 30.03 1017 10 16.09344 0 0
10:15 am 10:15 Cloudy 37 3 37 3 100 100 Calm 30.03 1017 10 16.09344 0 0
10:35 am 10:35 Cloudy 39 4 39 4 100 100 S 5 7 30.03 1017 10 16.09344 0 0
10:55 am 10:55 Cloudy 41 5 39 4 93 93 S 6 9 30 1016 10 16.09344 0 0
11:15 am 11:15 Cloudy 41 5 39 4 93 93 S 3 6 29.97 1015 10 16.09344 0 0
11:35 am 11:35 Cloudy 43 6 41 5 93 93 SE 5 7 29.94 1014 10 16.09344 0 0
11:55 am 11:55 Cloudy 45 7 41 5 87 87 Calm 29.94 1014 10 16.09344 0 0
12:15 pm 12:15 Cloudy 45 7 41 5 87 87 Calm 29.91 1013 10 16.09344 0 0
12:35 pm 12:35 Cloudy 45 7 41 5 87 87 Calm 29.91 1013 10 16.09344 0 0
12:55 pm 12:55 Cloudy 48 9 43 6 82 82 Calm 29.85 1011 10 16.09344 0 0
1:15 pm 13:15 Cloudy 50 10 43 6 76 76 S 3 6 29.83 1010 10 16.09344 0 0
1:35 pm 13:35 Partly Cloudy 52 11 43 6 72 72 SE 3 6 29.83 1010 10 16.09344 0 0
1:55 pm 13:55 Sunny 54 12 43 6 67 67 S 6 9 29.83 1010 10 16.09344 0 0
2:15 pm 14:15 Partly Cloudy 54 12 45 7 72 72 S 7 11 29.8 1009 10 16.09344 0 0
2:35 pm 14:35 Sunny 55 13 45 7 67 67 SSE 7 11 29.8 1009 10 16.09344 0 0
2:55 pm 14:55 Mostly Cloudy 57 14 45 7 63 63 S 6 9 29.8 1009 10 16.09344 0 0
3:15 pm 15:15 Cloudy 55 13 46 8 72 72 Calm 29.8 1009 10 16.09344 0 0
3:35 pm 15:35 Cloudy 55 13 46 8 72 72 Calm 29.8 1009 10 16.09344 0 0
3:55 pm 15:55 Mostly Cloudy 55 13 46 8 72 72 S 6 9 29.77 1008 10 16.09344 0 0
4:15 pm 16:15 Cloudy 57 14 46 8 67 67 S 7 11 29.77 1008 10 16.09344 0 0
4:35 pm 16:35 Cloudy 55 13 46 8 72 72 S 6 9 29.77 1008 10 16.09344 0 0
4:55 pm 16:55 Cloudy 55 13 46 8 72 72 Calm 29.77 1008 10 16.09344 0 0
5:15 pm 17:15 Cloudy with Light Rain 54 12 46 8 77 77 SW 6 9 29.77 1008 10 16.09344 0 0
5:35 pm 17:35 Cloudy with Light Rain 54 12 48 9 82 82 Calm 29.74 1007 10 16.09344 0 0
5:55 pm 17:55 Mostly Cloudy 52 11 50 10 94 94 S 6 9 29.74 1007 10 16.09344 0 0
6:15 pm 18:15 Cloudy 54 12 50 10 88 88 S 5 7 29.71 1006 10 16.09344 0 0
6:35 pm 18:35 Partly Cloudy 52 11 48 9 88 88 S 6 9 29.71 1006 10 16.09344 0 0
6:55 pm 18:55 Clear 52 11 48 9 88 88 S 7 11 29.68 1005 10 16.09344 0 0
7:15 pm 19:15 Clear 52 11 48 9 88 88 S 9 15 29.65 1004 10 16.09344 0 0
7:35 pm 19:35 Mostly Cloudy 54 12 50 10 88 88 SSW 10 17 29.65 1004 10 16.09344 0 0
7:55 pm 19:55 Cloudy 54 12 50 10 88 88 SSW 12 19 29.65 1004 10 16.09344 0 0
8:15 pm 20:15 Cloudy 54 12 50 10 88 88 SSW 10 17 29.62 1003 10 16.09344 0 0
8:35 pm 20:35 Cloudy 55 13 50 10 82 82 SW 12 19 29.62 1003 10 16.09344 0 0
8:55 pm 20:55 Cloudy with Heavy Rain 52 11 50 10 94 94 NW 24 39 29.68 1005 2.5 4.02336 0.11 2.794
9:15 pm 21:15 Cloudy with Light Rain 52 11 50 10 94 94 WNW 16 26 29.68 1005 7 11.265408 0.02 0.508
9:35 pm 21:35 Cloudy 52 11 48 9 88 88 W 8 13 29.68 1005 10 16.09344 0.02 0.508
9:55 pm 21:55 Cloudy 50 10 48 9 94 94 W 7 11 29.68 1005 10 16.09344 0.02 0.508
10:15 pm 22:15 Cloudy 50 10 46 8 88 88 W 8 13 29.68 1005 10 16.09344 0 0
10:35 pm 22:35 Mostly Cloudy 52 11 46 8 82 82 WNW 14 22 29.71 1006 10 16.09344 0 0
10:55 pm 22:55 Partly Cloudy 52 11 43 6 72 72 WNW 21 33 29.71 1006 10 16.09344 0 0
11:15 pm 23:15 Partly Cloudy 52 11 41 5 67 67 NW 22 35 29.71 1006 10 16.09344 0 0
11:35 pm 23:35 Partly Cloudy 52 11 39 4 62 62 NW 25 41 29.71 1006 10 16.09344 0 0
11:55 pm 23:55 Clear 52 11 37 3 58 58 WNW 23 37 29.71 1006 10 16.09344 0 0

Powered by AerisWeather